When you browse on this site, cookies collect data to enhance your experience and personalize the content and advertising you see.
Visit our Privacy Policy to learn more. By continuing to use the site, you agree to this use of cookies and data.

Stündliche Wetter Sidi Bu-l-Abbas

Heute, 9 Juli, Donnerstag

Zeit Temperatur Niederschläge Wind Luftdruck Luftfeuchtigkeit
00:00 +28°C° 0 mm 4 m/S 719 mmHg 51%
01:00 +26°C° 0 mm 4 m/S 719 mmHg 61%
02:00 +25°C° 0 mm 3 m/S 719 mmHg 70%
03:00 +24°C° 0 mm 2 m/S 718 mmHg 80%
04:00 +24°C° 0 mm 3 m/S 719 mmHg 79%
05:00 +24°C° 0 mm 3 m/S 719 mmHg 79%
06:00 +24°C° 0 mm 3 m/S 719 mmHg 78%
07:00 +26°C° 0 mm 3 m/S 719 mmHg 68%
08:00 +28°C° 0 mm 4 m/S 720 mmHg 57%
09:00 +30°C° 0 mm 4 m/S 720 mmHg 46%
10:00 +32°C° 0 mm 4 m/S 720 mmHg 43%
11:00 +34°C° 0 mm 5 m/S 720 mmHg 40%
12:00 +35°C° 0 mm 5 m/S 721 mmHg 38%
13:00 +35°C° 0 mm 5 m/S 720 mmHg 37%
14:00 +35°C° 0 mm 5 m/S 720 mmHg 36%
15:00 +34°C° 0 mm 5 m/S 719 mmHg 36%
16:00 +33°C° 0 mm 5 m/S 719 mmHg 38%
17:00 +32°C° 0 mm 4 m/S 719 mmHg 41%
18:00 +30°C° 0 mm 4 m/S 719 mmHg 43%
19:00 +29°C° 0 mm 3 m/S 719 mmHg 49%
20:00 +28°C° 0 mm 2 m/S 719 mmHg 55%
21:00 +26°C° 0 mm 1 m/S 719 mmHg 60%
22:00 +26°C° 0 mm 1 m/S 719 mmHg 61%
23:00 +26°C° 0 mm 2 m/S 719 mmHg 61%

Morgen, 10 Juli, Freitag

Zeit Temperatur Niederschläge Wind Luftdruck Luftfeuchtigkeit
00:00 +26°C° 0 mm 2 m/S 719 mmHg 61%
01:00 +25°C° 0 mm 2 m/S 719 mmHg 67%
02:00 +24°C° 0 mm 1 m/S 719 mmHg 73%
03:00 +23°C° 0 mm 1 m/S 718 mmHg 79%
04:00 +23°C° 0 mm 1 m/S 718 mmHg 77%
05:00 +23°C° 0 mm 1 m/S 719 mmHg 76%
06:00 +23°C° 0 mm 1 m/S 719 mmHg 75%
07:00 +25°C° 0 mm 1 m/S 719 mmHg 66%
08:00 +27°C° 0 mm 1 m/S 719 mmHg 57%
09:00 +29°C° 0 mm 2 m/S 720 mmHg 48%
10:00 +31°C° 0 mm 2 m/S 720 mmHg 43%
11:00 +34°C° 0 mm 3 m/S 720 mmHg 37%
12:00 +35°C° 0 mm 4 m/S 719 mmHg 32%
13:00 +35°C° 0 mm 5 m/S 719 mmHg 33%
14:00 +36°C° 0 mm 5 m/S 719 mmHg 35%
15:00 +36°C° 0 mm 5 m/S 718 mmHg 36%
16:00 +35°C° 0 mm 5 m/S 718 mmHg 38%
17:00 +34°C° 0 mm 5 m/S 718 mmHg 40%
18:00 +33°C° 0 mm 4 m/S 718 mmHg 42%
19:00 +30°C° 0 mm 3 m/S 718 mmHg 47%
20:00 +28°C° 0 mm 2 m/S 719 mmHg 52%
21:00 +27°C° 0 mm 1 m/S 719 mmHg 57%
22:00 +26°C° 0 mm 1 m/S 719 mmHg 60%
23:00 +25°C° 0 mm 1 m/S 719 mmHg 63%

übermorgen, 11 Juli, Samstag

Zeit Temperatur Niederschläge Wind Luftdruck Luftfeuchtigkeit
00:00 +23°C° 0 mm 0 m/S 718 mmHg 65%
01:00 +22°C° 0 mm 0 m/S 718 mmHg 66%
02:00 +24°C° 0 mm 1 m/S 718 mmHg 66%
03:00 +23°C° 0 mm 1 m/S 718 mmHg 67%
04:00 +24°C° 0 mm 1 m/S 718 mmHg 66%
05:00 +24°C° 0 mm 1 m/S 718 mmHg 65%
06:00 +25°C° 0 mm 1 m/S 719 mmHg 65%
07:00 +27°C° 0 mm 2 m/S 719 mmHg 55%
08:00 +29°C° 0 mm 2 m/S 720 mmHg 46%
09:00 +31°C° 0 mm 3 m/S 720 mmHg 37%
10:00 +34°C° 0 mm 3 m/S 720 mmHg 33%
11:00 +35°C° 0 mm 4 m/S 720 mmHg 28%
12:00 +37°C° 0 mm 4 m/S 720 mmHg 24%
13:00 +39°C° 0 mm 5 m/S 720 mmHg 24%
14:00 +39°C° 0 mm 6 m/S 720 mmHg 24%
15:00 +40°C° 0 mm 6 m/S 720 mmHg 25%
16:00 +38°C° 0 mm 6 m/S 719 mmHg 28%
17:00 +36°C° 0 mm 6 m/S 719 mmHg 31%
18:00 +34°C° 0 mm 5 m/S 719 mmHg 34%
19:00 +32°C° 0 mm 4 m/S 719 mmHg 39%
20:00 +30°C° 0 mm 3 m/S 719 mmHg 45%
21:00 +28°C° 0 mm 2 m/S 719 mmHg 51%
22:00 +28°C° 0 mm 2 m/S 719 mmHg 51%
23:00 +27°C° 0 mm 2 m/S 719 mmHg 51%

12 Juli, Sonntag

Zeit Temperatur Niederschläge Wind Luftdruck Luftfeuchtigkeit
00:00 +27°C° 0 mm 2 m/S 719 mmHg 51%
01:00 +27°C° 0 mm 2 m/S 719 mmHg 50%
02:00 +26°C° 0 mm 2 m/S 719 mmHg 49%
03:00 +26°C° 0 mm 2 m/S 718 mmHg 48%
04:00 +27°C° 0 mm 1 m/S 719 mmHg 46%
05:00 +27°C° 0 mm 1 m/S 719 mmHg 44%
06:00 +28°C° 0 mm 1 m/S 719 mmHg 42%
07:00 +30°C° 0 mm 2 m/S 720 mmHg 36%
08:00 +34°C° 0 mm 2 m/S 720 mmHg 29%
09:00 +36°C° 0 mm 2 m/S 721 mmHg 23%
10:00 +38°C° 0 mm 3 m/S 721 mmHg 20%
11:00 +41°C° 0 mm 4 m/S 721 mmHg 18%
12:00 +43°C° 0 mm 5 m/S 721 mmHg 15%
13:00 +43°C° 0 mm 5 m/S 720 mmHg 15%
14:00 +43°C° 0 mm 5 m/S 720 mmHg 15%
15:00 +45°C° 0 mm 6 m/S 720 mmHg 15%
16:00 +42°C° 0 mm 5 m/S 719 mmHg 17%
17:00 +41°C° 0 mm 5 m/S 719 mmHg 20%
18:00 +38°C° 0 mm 4 m/S 719 mmHg 22%
19:00 +36°C° 0 mm 3 m/S 719 mmHg 30%
20:00 +33°C° 0 mm 3 m/S 719 mmHg 39%
21:00 +30°C° 0 mm 2 m/S 720 mmHg 47%
22:00 +30°C° 0 mm 2 m/S 720 mmHg 45%
23:00 +30°C° 0 mm 2 m/S 720 mmHg 43%

13 Juli, Montag

Zeit Temperatur Niederschläge Wind Luftdruck Luftfeuchtigkeit
00:00 +30°C° 0 mm 2 m/S 720 mmHg 42%
01:00 +29°C° 0 mm 2 m/S 719 mmHg 49%
02:00 +27°C° 0 mm 2 m/S 719 mmHg 56%
03:00 +26°C° 0 mm 2 m/S 719 mmHg 63%
04:00 +26°C° 0 mm 2 m/S 719 mmHg 65%
05:00 +25°C° 0 mm 2 m/S 719 mmHg 66%
06:00 +25°C° 0 mm 2 m/S 719 mmHg 68%
07:00 +27°C° 0 mm 2 m/S 719 mmHg 61%
08:00 +29°C° 0 mm 3 m/S 720 mmHg 55%
09:00 +30°C° 0 mm 3 m/S 720 mmHg 49%
10:00 +33°C° 0 mm 4 m/S 720 mmHg 45%
11:00 +34°C° 0 mm 5 m/S 720 mmHg 41%
12:00 +35°C° 0 mm 6 m/S 720 mmHg 37%
13:00 +36°C° 0 mm 5 m/S 720 mmHg 36%
14:00 +36°C° 0 mm 5 m/S 719 mmHg 35%
15:00 +36°C° 0 mm 4 m/S 719 mmHg 34%
16:00 +35°C° 0 mm 4 m/S 719 mmHg 37%
17:00 +34°C° 0 mm 4 m/S 718 mmHg 40%
18:00 +33°C° 0 mm 3 m/S 718 mmHg 44%
19:00 +30°C° 0 mm 3 m/S 718 mmHg 52%
20:00 +28°C° 0 mm 2 m/S 719 mmHg 61%
21:00 +26°C° 0 mm 2 m/S 719 mmHg 69%
22:00 +25°C° 0 mm 2 m/S 719 mmHg 72%
23:00 +25°C° 0 mm 2 m/S 719 mmHg 74%

14 Juli, Dienstag

Zeit Temperatur Niederschläge Wind Luftdruck Luftfeuchtigkeit
00:00 +25°C° 0 mm 2 m/S 719 mmHg 76%
01:00 +24°C° 0 mm 2 m/S 719 mmHg 79%
02:00 +24°C° 0 mm 2 m/S 718 mmHg 82%
03:00 +23°C° 0 mm 2 m/S 718 mmHg 85%
04:00 +23°C° 0 mm 2 m/S 718 mmHg 83%
05:00 +23°C° 0 mm 2 m/S 718 mmHg 82%
06:00 +23°C° 0 mm 2 m/S 718 mmHg 81%
07:00 +26°C° 0 mm 1 m/S 718 mmHg 70%
08:00 +28°C° 0 mm 1 m/S 718 mmHg 58%
09:00 +30°C° 0 mm 1 m/S 718 mmHg 46%
10:00 +32°C° 0 mm 2 m/S 718 mmHg 42%
11:00 +34°C° 0 mm 4 m/S 718 mmHg 38%
12:00 +36°C° 0 mm 5 m/S 718 mmHg 33%
13:00 +36°C° 0 mm 5 m/S 717 mmHg 34%
14:00 +36°C° 0 mm 5 m/S 717 mmHg 35%
15:00 +36°C° 0 mm 5 m/S 716 mmHg 37%
16:00 +34°C° 0 mm 5 m/S 716 mmHg 39%
17:00 +33°C° 0 mm 4 m/S 716 mmHg 42%
18:00 +31°C° 0 mm 3 m/S 716 mmHg 44%
19:00 +30°C° 0 mm 3 m/S 716 mmHg 47%
20:00 +30°C° 0 mm 3 m/S 717 mmHg 49%
21:00 +29°C° 0 mm 2 m/S 717 mmHg 51%
22:00 +28°C° 0 mm 2 m/S 717 mmHg 53%
23:00 +28°C° 0 mm 2 m/S 716 mmHg 55%
Mehr zeigen